Location: Haut Kerinec
(48.0623°N, 4.4081°W)
Time: 03:51:17
(UTC+00:00)

Cosmos 968 Rocket - Pass Details

Date: 01 June 2020
Orbit: 741 x 770 km, 74.0° (Epoch: 07 July)

Event Time Altitude Azimuth Distance (km) Brightness Sun altitude
Rises 22:06:51 0° 340° (NNW) 3,216 8.5 -14.0°
Reaches altitude 10° 22:09:18 10° 346° (NNW) 2,282 7.2 -14.2°
Maximum altitude 22:14:20 50° 62° (ENE) 947 3.9 -14.6°
Enters shadow 22:17:32 21° 130° (SE) 1,626 4.6 -14.9°
